Probability
5 4 3 3 3 3 3 2 1 0 0 0 0 0 0 0 0 0 0 0 0 0 0 0 0 0 0 0 0 0 0 0 0 0 0 0 0 0 0 1 2 2 2
4 3 3 3 3 3 3 2 1 0 0 0 0 0 0 0 0 0 0 0 0 0 0 0 0 0 0 0 0 0 0 0 0 0 0 0 0 0 0 0 1 2 2
3 3 3 3 3 3 3 3 1 1 0 0 0 0 0 0 0 0 0 0 0 0 0 0 0 0 0 0 0 0 1 1 1 1 0 0 0 0 0 0 1 2 3
3 3 3 3 3 3 3 3 2 1 0 0 0 0 0 0 0 0 0 0 0 0 0 0 0 0 0 0 0 0 1 2 2 2 1 1 0 0 0 0 1 2 3
3 3 3 3 3 3 3 3 2 1 0 0 0 0 0 0 0 0 0 0 0 0 0 0 0 0 0 0 0 0 1 1 2 3 3 2 1 1 0 0 0 1 2
3 3 3 3 3 3 3 3 1 0 0 0 0 0 0 0 0 0 0 0 0 0 0 0 0 0 0 0 0 0 0 1 2 3 3 3 3 2 1 1 1 1 2
3 3 3 3 3 3 3 2 1 0 0 0 0 0 0 0 0 0 0 0 0 0 0 0 0 0 0 0 0 0 1 2 3 3 3 3 3 4 3 3 2 1 1
2 3 3 3 3 3 3 1 0 0 0 0 0 0 0 0 0 0 0 0 0 0 0 0 0 0 0 0 0 0 1 2 2 2 2 2 3 4 4 3 3 2 2
1 2 3 3 3 3 2 1 0 0 0 0 0 0 0 0 0 0 0 0 0 0 0 0 0 0 0 0 0 0 1 1 1 1 1 1 1 2 2 1 2 2 2
1 2 3 3 3 3 2 1 0 0 0 0 0 0 0 0 0 0 0 0 0 0 0 0 0 0 0 0 0 0 0 0 0 0 0 0 0 0 0 0 1 1 1
0 1 2 2 2 2 1 0 0 0 0 0 0 0 0 0 0 0 0 0 0 0 0 0 0 0 0 0 0 0 0 0 0 0 0 0 0 0 0 0 0 0 1
0 0 1 1 1 1 0 0 0 0 0 0 0 0 0 0 0 0 0 0 0 0 0 0 0 0 0 0 0 0 0 0 0 0 0 0 0 0 0 0 0 0 1
0 0 0 0 0 0 0 0 0 0 0 0 0 0 0 0 0 0 0 0 0 0 0 0 0 0 0 0 0 0 0 0 0 0 0 0 0 0 0 0 0 0 1
0 0 0 0 0 0 0 0 0 0 0 0 0 0 0 0 0 0 0 0 0 0 0 0 0 0 0 0 0 0 0 0 0 0 0 0 0 0 0 0 0 0 1
0 0 0 0 0 0 0 0 0 0 0 0 0 0 0 0 0 0 0 0 0 0 0 0 0 0 0 0 0 0 0 0 0 0 0 0 0 0 0 0 0 0 0
0 0 0 0 0 0 0 0 0 0 0 0 0 0 0 0 0 0 0 0 0 0 0 0 0 0 0 0 0 0 0 0 0 0 0 0 0 0 0 0 0 0 0
0 0 0 0 0 0 0 0 0 0 0 0 0 0 0 0 0 0 0 0 0 0 0 0 0 0 0 0 0 0 0 0 0 0 0 0 0 0 0 0 0 0 0
0 0 0 0 0 0 0 0 0 0 0 0 0 0 0 0 0 0 0 0 0 0 0 0 0 0 0 0 0 0 0 0 0 0 0 0 0 0 0 0 0 0 0
0 0 0 0 0 0 0 0 0 0 0 0 0 0 0 0 0 0 0 0 0 0 0 0 0 0 0 0 0 0 0 0 0 0 0 0 0 0 0 0 0 0 0
0 0 0 0 0 0 0 0 0 0 0 0 0 0 0 0 0 0 0 0 0 0 0 0 0 0 0 0 0 0 0 0 0 0 0 0 0 0 0 0 0 0 0
0 0 0 0 0 0 0 0 0 0 0 0 0 0 0 0 0 0 0 0 0 0 0 0 0 0 0 0 0 0 0 0 0 0 0 0 0 0 0 0 0 0 0
0 0 0 0 0 0 0 0 0 0 0 0 0 0 0 0 0 0 0 0 0 0 0 0 0 0 0 0 0 0 0 0 0 0 0 0 0 0 0 0 0 0 0
0 0 0 0 0 0 0 0 0 0 0 0 0 0 0 0 0 0 0 0 0 0 0 0 0 0 0 0 0 0 0 0 0 0 0 0 0 0 0 0 0 0 0
0 0 0 0 0 0 0 0 0 0 0 0 0 0 0 0 0 0 0 0 0 0 0 0 0 0 0 0 0 0 0 0 0 0 0 0 0 0 0 0 0 0 0
0 0 0 0 0 0 0 0 0 0 0 0 0 0 0 0 0 0 0 0 0 0 0 0 0 0 0 0 0 0 0 0 0 0 0 0 0 0 0 0 0 0 0
0 0 0 0 0 0 0 0 0 0 0 0 0 0 0 0 0 0 0 0 0 0 0 0 0 0 0 0 0 0 0 0 0 0 0 0 0 0 0 0 0 0 0
Wind_Speed
3 3 2 2 2 2 2 2 2 3 3 3 3 3 3 2 2 2 2 5 5 5 6 6 7 7 8 8 8 9 9 10 10 11 11 11 11 11 12 12 12 12 13
4 3 3 2 2 2 2 2 2 2 2 2 3 2 2 2 2 2 1 3 6 6 6 7 7 8 8 8 9 10 10 10 11 11 12 12 12 12 12 13 13 13 13
4 4 3 2 2 2 2 2 3 3 2 3 3 2 2 2 1 1 1 1 2 5 7 8 8 9 9 10 10 11 11 11 12 12 12 12 12 13 13 13 14 14 14
5 4 3 2 2 2 2 2 2 2 2 2 2 1 1 1 2 1 1 2 2 2 5 8 8 9 10 11 12 12 12 12 12 13 13 13 13 13 14 14 14 15 15
5 4 3 2 3 3 2 2 2 2 2 2 1 1 2 1 1 1 2 2 2 2 2 5 9 9 11 12 12 13 13 13 13 13 13 13 14 14 15 15 15 16 16
5 4 3 3 3 3 2 2 3 2 1 1 2 2 2 2 2 1 1 1 2 3 3 3 4 6 10 12 13 14 14 14 14 14 14 14 15 15 15 16 16 16 17
5 4 4 3 3 3 3 3 3 3 2 1 2 2 3 3 2 1 2 2 2 3 3 3 3 3 4 10 12 14 14 15 15 15 15 15 15 15 15 16 17 17 16
4 4 5 4 3 3 3 3 3 2 1 1 2 2 2 4 3 3 2 1 2 3 3 4 4 3 3 3 8 13 14 15 16 16 16 15 15 16 16 16 16 16 16
4 4 5 4 4 3 3 3 3 3 2 1 1 2 2 1 2 3 2 2 2 2 3 3 4 4 5 4 5 9 14 15 16 17 16 16 16 16 16 16 16 16 16
3 4 4 4 4 3 3 3 3 2 3 1 0 1 1 3 1 2 3 2 3 3 3 4 4 4 4 4 6 12 14 15 16 17 17 17 17 17 17 17 16 16 16
3 4 4 4 4 3 3 3 3 2 2 2 2 1 1 1 1 2 3 3 3 3 3 3 3 3 4 4 4 9 14 15 16 17 17 17 17 17 17 17 18 17 17
2 3 4 4 4 3 3 3 3 3 2 2 1 1 2 1 1 1 2 3 4 3 4 3 2 3 3 4 7 13 15 16 16 17 17 17 18 18 18 18 18 18 18
2 4 4 4 3 3 3 3 3 2 2 2 2 1 1 1 1 1 1 2 3 3 3 2 2 3 3 4 5 13 13 16 16 16 16 17 17 17 18 18 18 18 18
3 4 4 4 4 3 3 3 2 2 2 2 2 1 1 1 1 1 1 1 3 3 2 3 2 3 3 4 7 12 8 15 16 16 16 16 16 17 17 17 17 17 17
3 4 4 4 3 3 3 3 2 2 2 2 2 1 1 1 1 1 1 1 1 3 4 3 3 3 4 4 8 6 6 13 15 16 16 16 16 16 16 16 16 17 17
4 4 4 4 3 3 3 3 2 2 2 1 1 1 1 1 1 1 1 1 2 2 4 3 4 5 6 6 10 7 6 14 14 15 16 16 16 16 16 16 16 16 16
4 4 4 4 4 3 3 3 3 3 3 2 1 1 1 1 1 1 1 1 1 1 4 5 4 4 5 6 7 6 6 5 7 14 15 15 16 15 16 16 16 16 17
4 4 4 4 4 3 3 3 3 3 3 3 2 1 1 1 1 1 1 2 2 2 3 7 6 5 6 6 6 7 7 6 6 12 15 15 15 15 16 16 16 16 16
4 4 4 4 4 4 3 3 3 3 3 3 2 2 2 1 1 1 2 2 2 2 2 4 6 5 5 5 6 6 6 5 6 9 12 13 14 16 16 16 16 16 15
4 4 4 4 4 4 4 3 3 2 2 2 2 2 2 2 2 2 2 2 2 2 3 4 5 5 5 5 4 6 7 5 6 7 8 10 13 15 16 16 16 15 15
4 4 4 3 3 3 3 4 3 3 2 2 1 1 2 2 3 2 2 2 2 2 3 3 5 5 5 5 5 5 7 7 6 4 5 6 7 6 8 12 13 15 15
3 3 4 4 3 2 4 5 4 3 3 2 1 1 1 2 2 4 4 4 4 3 3 3 4 5 7 6 5 6 6 7 6 4 6 8 5 6 6 5 12 15 15
3 3 3 3 3 3 4 5 4 3 3 2 2 1 1 1 2 2 3 5 5 6 6 4 5 6 6 6 6 6 6 6 7 6 6 7 5 6 6 8 15 15 14
2 3 3 3 3 3 4 4 4 3 2 2 2 2 1 1 2 2 2 3 3 3 4 3 4 5 5 5 5 6 6 6 6 4 3 5 5 5 7 6 12 13 14
2 2 3 3 3 2 3 4 3 2 1 1 1 1 1 1 3 4 2 2 4 4 5 6 6 7 9 10 8 4 4 5 6 5 2 3 4 6 6 5 6 12 14
2 2 2 2 2 2 3 3 3 2 1 1 1 1 2 2 3 4 2 2 4 4 4 4 5 6 5 6 8 4 3 4 5 4 3 3 4 5 5 3 3 5 7
Wind_Direction
129 121 111 102 93 89 90 84 76 70 61 51 52 62 61 60 56 40 18 28 28 27 20 14 9 3 359 357 354 350 346 342 339 334 330 328 326 323 318 311 307 303 300
134 128 118 110 96 96 97 99 91 81 66 58 52 52 57 57 55 46 27 19 23 18 12 7 4 359 354 353 350 346 342 340 336 334 331 327 324 321 318 316 310 305 301
134 130 125 119 111 100 93 85 76 70 58 49 46 39 49 50 53 44 31 26 15 16 15 7 3 359 353 351 347 342 339 337 334 331 328 323 321 319 317 314 313 308 304
132 126 124 123 115 101 96 94 85 74 55 46 35 19 30 39 42 43 44 39 28 17 12 9 2 358 352 347 342 339 337 334 331 328 325 321 319 316 314 313 311 309 305
132 128 127 124 113 99 91 96 80 86 75 41 32 30 20 21 18 38 39 36 34 25 13 6 3 358 352 346 342 338 335 331 329 326 323 321 317 315 313 311 309 308 306
135 127 123 120 114 104 91 92 95 75 82 67 49 31 9 4 20 30 15 16 23 24 17 3 354 349 349 344 343 340 336 333 330 327 325 322 317 314 312 311 309 307 306
140 134 127 123 120 121 124 121 111 92 54 50 61 22 360 2 12 9 7 12 10 9 6 355 345 338 335 343 342 339 337 334 331 329 326 323 319 317 315 315 312 310 309
149 146 140 136 133 127 120 123 119 109 59 45 95 80 9 348 349 355 348 360 357 358 359 351 343 336 327 324 331 339 336 334 333 331 328 326 325 323 319 317 316 315 313
151 149 147 142 143 140 144 152 144 136 143 11 71 126 131 236 308 323 332 346 351 352 339 335 338 335 333 331 324 335 335 333 331 329 329 329 327 324 322 320 319 320 319
154 156 153 149 148 144 146 156 148 151 143 149 34 60 149 165 177 308 318 330 339 335 325 329 332 328 329 327 331 336 335 333 332 332 331 329 328 327 325 324 323 324 320
165 162 156 151 151 149 151 146 142 145 149 156 163 148 92 81 171 185 281 312 326 314 312 310 310 317 324 328 326 330 336 335 336 335 333 331 330 330 328 326 324 322 320
166 167 162 155 152 151 154 151 149 143 139 142 146 154 159 174 205 192 248 290 302 300 305 303 302 311 319 328 330 334 335 337 336 335 333 332 331 329 327 325 323 322 321
176 181 169 162 157 157 152 146 147 151 147 145 153 163 165 197 199 192 222 275 290 293 299 298 292 309 327 330 324 330 334 336 334 332 332 332 329 328 326 325 322 322 322
182 172 169 165 159 156 153 148 146 157 146 150 151 154 156 239 220 202 203 247 305 301 292 286 299 302 321 318 317 329 329 331 330 332 332 330 328 327 326 325 324 324 322
167 161 160 158 161 160 157 150 152 161 150 157 162 165 177 229 242 246 220 203 226 292 299 287 301 303 315 314 319 322 319 324 329 330 330 330 329 328 327 327 327 325 323
165 159 160 159 159 159 153 147 150 157 150 160 165 160 195 237 260 265 248 250 227 245 280 285 287 298 310 317 321 321 314 326 327 327 328 329 330 332 331 329 328 329 328
165 165 166 163 161 163 162 158 165 161 161 167 178 182 220 243 255 266 266 267 262 248 278 292 292 301 306 309 315 314 313 313 316 323 326 328 330 330 331 331 330 329 329
169 168 163 163 168 169 168 171 174 170 173 183 199 196 231 258 266 271 272 269 270 262 268 292 304 308 306 307 310 314 317 319 314 320 325 329 332 333 331 330 328 327 326
165 163 162 170 175 174 175 180 177 178 184 188 191 198 219 221 268 282 285 279 286 298 287 289 299 305 305 309 316 313 312 311 314 319 324 331 334 333 331 329 328 328 330
166 169 171 176 176 173 172 173 171 172 176 188 197 203 211 219 235 250 274 277 294 308 308 300 300 305 306 309 316 322 321 322 318 319 323 328 326 327 329 330 331 333 333
169 170 165 167 167 171 176 173 170 167 169 181 209 219 226 254 268 270 282 281 291 299 304 306 305 309 312 324 323 319 315 318 313 317 319 318 318 318 323 326 330 331 332
163 157 164 165 167 181 185 178 166 163 171 183 212 251 263 267 285 305 310 307 300 294 297 297 301 303 307 309 311 311 314 321 319 327 323 312 316 312 313 313 325 330 332
157 155 165 166 175 187 179 174 165 155 170 189 204 225 280 294 312 294 305 317 317 313 301 290 290 293 298 301 307 308 311 311 301 306 313 303 313 307 309 315 324 327 331
166 167 170 171 170 184 174 165 158 144 163 192 212 217 232 266 284 299 301 309 305 304 300 296 277 286 295 297 292 295 300 302 292 296 307 296 308 305 307 307 319 325 331
163 168 165 164 163 183 181 168 147 147 166 206 223 227 236 253 283 309 311 304 310 313 324 323 318 318 322 325 324 320 317 316 311 309 314 297 302 305 300 294 312 328 334
156 149 144 151 158 176 190 172 153 155 172 211 248 255 269 287 291 306 301 292 304 311 317 322 330 332 328 325 331 324 305 304 307 306 311 313 304 319 313 300 307 318 322